Location: Grantsboro
(35.1404°N, 76.8424°W)
Time: 00:16:09
(UTC+00:00)

Cosmos 2184 Rocket - Pass Details

Date: 18 January 2020
Orbit: 959 x 1002 km, 82.9° (Epoch: 23 February)

Event Time Altitude Azimuth Distance (km) Brightness Sun altitude
Exits shadow 10:29:38 - 347° (NNW) 3,449 6.6 -21.2°
Reaches altitude 10° 10:31:37 10° 344° (NNW) 2,710 6.1 -20.8°
Maximum altitude 10:37:39 56° 268° (W) 1,148 4.0 -19.6°
Drops below altitude 10° 10:43:42 10° 192° (SSW) 2,722 6.3 -18.4°
Sets 10:46:16 0° 188° (S) 3,672 7.1 -17.9°
